Location: Boca de Tacagua
(10.5333°N, 66.9833°W)
Time: 03:36:42
(UTC+00:00)

XW-2B - Visible Passes

Search period start: 19 June 2024 00:00
Search period end: 29 June 2024 00:00
Orbit: 415 x 420 km, 97.5° (Epoch: 18 June)

Date Brightness Start Highest point End Pass type
(mag) Time Alt. Az. Time Alt. Az. Time Alt. Az.
20 Jun ? 23:26:36 10° S 23:29:38 42° W 23:32:41 10° NNW visible
22 Jun ? 23:28:52 10° S 23:31:52 38° W 23:34:52 10° NNW visible
24 Jun ? 23:30:49 10° SSW 23:33:47 36° W 23:36:44 10° NNW visible
26 Jun ? 23:32:28 10° SSW 23:35:23 34° W 23:38:19 10° NNW visible
28 Jun ? 23:33:49 10° SSW 23:36:42 32° W 23:39:36 10° NW visible
